Elmira, NY

4:45 PM EDT on May 25, 2017 (GMT -0400)
Elmira-Corning Regional

Weather History for KELM - April, 2013

Change the Weather History Date:

Monday, April 1, 2013

  Actual Average Record
Temperature  
Mean Temperature 36 °F -  
Max Temperature 45 °F 51 °F 80 °F (1943)
Min Temperature 28 °F 30 °F 9 °F (2003)
Degree Days  
Heating Degree Days 28    
Moisture  
Dew Point 28 °F    
Average Humidity 78    
Maximum Humidity 100    
Minimum Humidity 32    
Precipitation  
Precipitation 0.10 in - - ()
Sea Level Pressure  
Sea Level Pressure 29.70 in    
Wind  
Wind Speed 4 mph (West)    
Max Wind Speed 21 mph    
Max Gust Speed 41 mph    
Visibility 5 miles    
Events Fog , Rain , Snow    
Averages and records for this station are not official NWS values.
T = Trace of Precipitation, MM = Missing Value Source: NWS Daily Summary

Daily Weather History Graph

Daily Weather History Graph

Search for Another Location

Airport or City:

Trip Planner

Search our weather history database for the weather conditions in past years. The results will help you decide how hot, cold, wet, or windy it might be!

Date:

Astronomy

Apr. 01, 2013 Rise Set
Actual Time 6:49 AM EDT 7:33 PM EDT
Civil Twilight 6:21 AM EDT 8:01 PM EDT
Nautical Twilight 5:48 AM EDT 8:35 PM EDT
Astronomical Twilight 5:13 AM EDT 9:10 PM EDT
Moon 12:44 AM EDT (4/1) 10:29 AM EDT (4/1)
Length of Visible Light 13h 40m
Length of Day
12h 43m
Waning Gibbous, 67% of the Moon is Illuminated
Apr 1
Waning Gibbous
Apr 3
Last Quarter
Apr 10
New
Apr 18
First Quarter
Apr 25
Full

Hourly Weather History & Observations

Time (EDT) Temp. Windchill Dew Point Humidity Pressure Visibility Wind Dir Wind Speed Gust Speed Precip Events Conditions
12:21 AM 35.6 °F - 33.8 °F 93% 29.66 in 0.2 mi Calm Calm - N/A Fog Fog
12:32 AM 35.6 °F - 33.8 °F 93% 29.65 in 0.5 mi Calm Calm - N/A Fog Fog
12:43 AM 35.6 °F - 33.8 °F 93% 29.65 in 0.2 mi Calm Calm - N/A Fog Fog
12:49 AM 33.8 °F 30.8 °F 33.8 °F 100% 29.65 in 0.5 mi WSW 3.5 mph - N/A Fog Fog
12:53 AM 34.0 °F 29.8 °F 32.0 °F 92% 29.66 in 0.5 mi West 4.6 mph - N/A Fog Fog
1:03 AM 33.8 °F 30.8 °F 32.0 °F 93% 29.64 in 0.5 mi NNW 3.5 mph - N/A Fog Fog
1:16 AM 35.6 °F - 33.8 °F 93% 29.63 in 1.0 mi Calm Calm - N/A   Scattered Clouds
1:19 AM 35.6 °F - 33.8 °F 93% 29.63 in 0.8 mi Calm Calm - N/A   Mostly Cloudy
1:36 AM 33.8 °F - 32.0 °F 93% 29.63 in 0.2 mi Calm Calm - N/A Fog Fog
1:53 AM 33.1 °F - 32.0 °F 96% 29.65 in 0.2 mi Calm Calm - N/A Fog Fog
2:23 AM 33.8 °F - 32.0 °F 93% 29.63 in 0.5 mi Calm Calm - N/A Fog Fog
2:37 AM 32.0 °F - 30.2 °F 93% 29.62 in 0.2 mi Calm Calm - N/A Fog Fog
2:53 AM 30.9 °F - 30.0 °F 96% 29.64 in 0.2 mi Calm Calm - N/A Fog Light Freezing Fog
3:32 AM 30.2 °F - 28.4 °F 93% 29.61 in 0.8 mi Calm Calm - N/A   Overcast
3:44 AM 32.0 °F - 30.2 °F 93% 29.61 in 1.0 mi Calm Calm - N/A   Overcast
3:53 AM 32.0 °F - 30.0 °F 92% 29.63 in 1.5 mi Calm Calm - N/A   Overcast
4:02 AM 32.0 °F 28.7 °F 30.2 °F 93% 29.61 in 1.0 mi ESE 3.5 mph - N/A   Overcast
4:10 AM 32.0 °F - 30.2 °F 93% 29.61 in 0.8 mi Calm Calm - 0.00 in   Overcast
4:22 AM 32.0 °F - 32.0 °F 100% 29.61 in 1.8 mi Calm Calm - 0.00 in   Overcast
4:28 AM 32.0 °F - 30.2 °F 93% 29.61 in 2.0 mi Calm Calm - 0.00 in   Overcast
4:45 AM 32.0 °F - 32.0 °F 100% 29.61 in 1.5 mi Calm Calm - 0.00 in   Overcast
4:53 AM 33.1 °F - 32.0 °F 96% 29.63 in 1.8 mi Calm Calm - 0.00 in   Overcast
4:58 AM 33.8 °F - 30.2 °F 87% 29.61 in 3.0 mi Calm Calm - 0.00 in   Overcast
5:53 AM 33.1 °F - 32.0 °F 96% 29.61 in 4.0 mi Calm Calm - 0.00 in   Overcast
6:53 AM 41.0 °F 35.8 °F 37.0 °F 86% 29.61 in 6.0 mi West 8.1 mph - 0.01 in Rain Light Rain
7:08 AM 42.8 °F 35.1 °F 37.4 °F 81% 29.61 in 8.0 mi WNW 16.1 mph 19.6 mph 0.02 in   Overcast
7:20 AM 41.0 °F 34.3 °F 35.6 °F 81% 29.61 in 6.0 mi SW 11.5 mph 21.9 mph 0.06 in Rain Light Rain
7:53 AM 41.0 °F 35.2 °F 37.0 °F 86% 29.63 in 10.0 mi SW 9.2 mph - 0.06 in   Overcast
8:53 AM 41.0 °F 34.7 °F 37.9 °F 89% 29.66 in 3.0 mi West 10.4 mph - 0.02 in Rain Rain
9:12 AM 42.8 °F 37.5 °F 37.4 °F 81% 29.64 in 10.0 mi West 9.2 mph - 0.01 in   Overcast
9:53 AM 45.0 °F 38.5 °F 36.0 °F 71% 29.65 in 10.0 mi West 13.8 mph 21.9 mph 0.01 in   Clear
10:13 AM 37.4 °F 27.5 °F 33.8 °F 87% 29.67 in 3.0 mi WNW 18.4 mph 41.4 mph 0.01 in Rain Light Rain
10:20 AM 39.2 °F 30.8 °F 33.8 °F 81% 29.67 in 7.0 mi West 15.0 mph 25.3 mph 0.01 in Rain Light Rain
10:28 AM 39.2 °F 31.6 °F 33.8 °F 81% 29.68 in 7.0 mi West 12.7 mph 20.7 mph 0.01 in   Overcast
11:53 AM 41.0 °F 31.6 °F 27.0 °F 57% 29.75 in 10.0 mi West 20.7 mph 32.2 mph N/A   Scattered Clouds
12:53 PM 39.9 °F 31.4 °F 21.9 °F 49% 29.77 in 10.0 mi West 16.1 mph 26.5 mph N/A   Mostly Cloudy
1:53 PM 42.1 °F 33.1 °F 18.0 °F 38% 29.79 in 10.0 mi West 20.7 mph 35.7 mph N/A   Partly Cloudy
2:53 PM 39.9 °F 30.8 °F 15.1 °F 36% 29.82 in 10.0 mi NW 18.4 mph 35.7 mph N/A   Mostly Cloudy
3:53 PM 37.9 °F 28.9 °F 10.0 °F 32% 29.85 in 10.0 mi West 16.1 mph 29.9 mph N/A   Scattered Clouds
4:53 PM 37.9 °F 30.0 °F 10.0 °F 32% 29.86 in 10.0 mi West 12.7 mph 21.9 mph N/A   Overcast
5:53 PM 36.0 °F 25.0 °F 10.0 °F 34% 29.89 in 10.0 mi WNW 20.7 mph 27.6 mph N/A   Mostly Cloudy
6:53 PM 34.0 °F 25.0 °F 12.9 °F 42% 29.90 in 10.0 mi NW 12.7 mph 20.7 mph N/A   Mostly Cloudy
7:53 PM 30.9 °F 20.7 °F 12.9 °F 47% 29.93 in 10.0 mi West 13.8 mph 27.6 mph N/A   Scattered Clouds
8:53 PM 30.0 °F 22.4 °F 14.0 °F 51% 29.95 in 10.0 mi West 8.1 mph - N/A   Clear
9:53 PM 28.9 °F 25.2 °F 16.0 °F 58% 29.94 in 10.0 mi NW 3.5 mph - N/A   Clear
10:53 PM 28.0 °F 20.8 °F 16.0 °F 61% 29.95 in 10.0 mi WNW 6.9 mph - N/A   Scattered Clouds
11:53 PM 28.0 °F 20.8 °F 19.0 °F 69% 29.95 in 7.0 mi West 6.9 mph - 0.00 in Snow Light Snow